Погода в Семеновке

Россия / Саратовская область     51°10′51″N   47°36′22″E
темп.,
°C
ветер,
м/с
пор.,
м/с
влажн.,
%
обл.,
%
осадки,
мм/ч
давл.,
гПа
погр.,
м
17 мая, вт
вт1701:00+9з612825 0.0 1006432
04:00+7з511870 0.0 1007307
07:00+9з510780 0.0 1007403
10:00+13з79564 0.0 10071378
13:00+16з694088 0.0 10062556
16:00+14юз685198 0.3 10051862
19:00+13зюз58565 0.1 10051381
22:00+9юз4117295 0.2 1005295
18 мая, ср
ср1801:00+9зюз41077100 0.0 1005421
04:00+8з7138063 0.0 1005746
07:00+9зюз713785 0.0 1006998
10:00+10з91471100 0.6 10071449
13:00+10з6107489 0.3 1008883
16:00+14з79555 0.3 10081301
19:00+14зсз575734 0.0 1009851
22:00+9сз3376100 0.0 101140
19 мая, чт
чт1901:00+8зсз227871 0.0 101125
04:00+7зсз338122 0.0 101243
07:00+9сз238145 0.0 1013181
10:00+11сз3470100 0.0 1013517
13:00+15зсз4654100 0.1 10131722
16:00+14сз4551100 0.1 10131318
19:00+14зсз235513 0.0 10121013
22:00+10з226713 0.0 101224
20 мая, пт
пт2001:00+8ссз597811 0.0 1012249
04:00+6ссз410866 0.0 1013299
07:00+7ссз69780 0.0 1014574
10:00+10ссз78515 0.0 10141482
13:00+13сз7942100 0.0 10142334
16:00+11сз9115099 0.0 10152097
19:00+11ссз7104884 0.0 10151882
22:00+7ссз36600 0.0 1016116
21 мая, сб
сб2101:00+5сз34690 0.0 101756
04:00+4зсз33718 0.0 101636
07:00+7зюз2363100 0.0 1016137
10:00+11ююз4445100 0.0 10141126
13:00+11ююз6769100 0.1 10121330
16:00+8ююв4891100 2.8 1009535
19:00+8вюв5895100 3.6 1007450
22:00+8всв5895100 4.5 1005401